Regional Weather Roundup
Issued by NWS

Home | Current Version | Previous Version | Graphics & Text | Print | Product List | Glossary Off
Versions: 1 2 3 4 5 6 7 8 9 10 11 12 13 14 15 16 17 18 19 20 21 22 23 24 25 26 27 28 29 30 31 32 33 34 35 36 37 38 39 40 41 42 43 44 45 46 47 48 49 50

000
ASUS43 KTOP 250859
RWRKS

WEATHER ROUNDUP FOR KANSAS
NATIONAL WEATHER SERVICE GOODLAND KS
300 AM CST SUN JAN 25 2015

NOTE:  "FAIR" INDICATES FEW OR NO CLOUDS BELOW 12,000 FEET WITH NO
SIGNIFICANT WEATHER AND/OR OBSTRUCTIONS TO VISIBILITY.

KSZ001>006-013>018-027>032-041>047-251000-
NORTHWEST KANSAS

CITY           SKY/WX    TMP DP  RH WIND       PRES   REMARKS
GOODLAND       PTCLDY    38  26  62 NW25G33   30.04S WCI  27
HAYS           CLEAR     45  27  49 NW22G28   29.93R
HILL CITY      CLEAR     41  28  60 NW15      29.95R
RUSSELL        CLEAR     45  32  60 NW30G38   29.88R
$$

KSZ061>065-074>080-084>089-251000-
SOUTHWEST KANSAS

CITY           SKY/WX    TMP DP  RH WIND       PRES   REMARKS
DODGE CITY     MOCLDY    46  27  47 NW28G39   30.00R
ELKHART          N/A    N/A N/A N/A MISG        N/A
GARDEN CITY    MOCLDY    44  26  49 N29G37    30.02R
GREAT BEND     MOCLDY    45  30  57 NW21G26   29.93R
LIBERAL        MOCLDY    43  27  52 NW20      30.08R
$$

KSZ066>073-081>083-090>101-251000-
SOUTHEAST KANSAS

CITY           SKY/WX    TMP DP  RH WIND       PRES   REMARKS
CHANUTE        CLOUDY    50  38  63 NW18G25   29.73R
COFFEYVILLE    CLOUDY    52  34  50 NW15      29.76R
HUTCHINSON     PTCLDY    49  31  49 NW21G35   29.86R
MEDICINE LODGE   N/A     50  34  54 NW20G30   29.91R
NEWTON         MOCLDY    46  30  53 NW23G33   29.83R
PARSONS        CLOUDY    51  37  58 NW14      29.75R
WICHITA INTL   MOCLDY    50  33  52 NW25G35   29.85R
WICHITA JABRA  CLOUDY    49  34  56 NW20G26   29.83R
WINFIELD       MOCLDY    51  31  46 NW16      29.84R
$$

KSZ007>012-019>026-033>040-048>060-102>105-251000-
NORTHEAST KANSAS

CITY           SKY/WX    TMP DP  RH WIND       PRES   REMARKS
CONCORDIA      CLOUDY    46  35  65 NW29G48   29.79R
EMPORIA        MOCLDY    46  37  71 NW17G24   29.74R
LAWRENCE       PTCLDY    44  37  76 NW13      29.68S
MANHATTAN      MOCLDY    48  35  60 NW9G22    29.74R
OLATHE IND     CLOUDY    45  40  82 W12       29.68R
OLATHE EXE     CLOUDY    46  41  82 W8        29.66R
SALINA         PTCLDY    47  33  58 NW25      29.81R
TOPEKA BILLARD MOCLDY    46  37  71 W7        29.69F
TOPEKA FORBES  MOCLDY    47  38  71 W12       29.69S
$$



USA.gov is the U.S. government's official web portal to all federal, state and local government web resources and services.